This is the latest recevied weather packets stored in our database for station/object EA5DFV. If no packets are shown the sender has not sent any weather packets the latest 10 day(s).
| Time | Temp. | Humidity | Pressure | Rain* | Wind** | Luminosity | Snow |
|---|---|---|---|---|---|---|---|
| 1777788214 | 16.67° C | 84% | 1014.7 hPa | 0 mm | - | 51 W/m² | - |
| 1777787924 | 16.67° C | 84% | 1014.6 hPa | 0 mm | - | 47 W/m² | - |
| 1777787615 | 16.67° C | 84% | 1014.6 hPa | 0 mm | - | 40 W/m² | - |
| 1777787308 | 16.67° C | 84% | 1014.6 hPa | 0 mm | - | 30 W/m² | - |
| 1777787019 | 16.67° C | 84% | 1014.5 hPa | 0 mm | - | 26 W/m² | - |
| 1777786709 | 16.67° C | 84% | 1014.7 hPa | 0 mm | - | 18 W/m² | - |
| 1777786419 | 16.67° C | 84% | 1014.7 hPa | 0 mm | - | 12 W/m² | - |
| 1777786110 | 16.67° C | 83% | 1014.6 hPa | 0 mm | - | 9 W/m² | - |
| 1777785807 | 16.67° C | 83% | 1014.6 hPa | 0 mm | - | 7 W/m² | - |
| 1777785520 | 16.67° C | 83% | 1014.5 hPa | 0 mm | - | 5 W/m² | - |
| 1777785210 | 16.67° C | 83% | 1014.5 hPa | 0 mm | - | 0 W/m² | - |
| 1777784904 | 16.67° C | 83% | 1014.4 hPa | 0 mm | - | 0 W/m² | - |
| 1777784617 | 16.67° C | 83% | 1014.3 hPa | 0 mm | - | 0 W/m² | - |
| 1777784308 | 16.67° C | 83% | 1014.3 hPa | 0 mm | - | 0 W/m² | - |
| 1777784018 | 16.67° C | 83% | 1014.2 hPa | 0 mm | - | 0 W/m² | - |
| 1777783709 | 16.67° C | 83% | 1014.3 hPa | 0 mm | - | 0 W/m² | - |
| 1777783403 | 16.67° C | 83% | 1014.2 hPa | 0 mm | - | 0 W/m² | - |
| 1777783114 | 16.67° C | 83% | 1014.2 hPa | 0 mm | - | 0 W/m² | - |
| 1777782808 | 16.67° C | 84% | 1014.2 hPa | 0 mm | - | 0 W/m² | - |
| 1777782518 | 16.67° C | 84% | 1014.2 hPa | 0 mm | - | 0 W/m² | - |
| 1777782209 | 16.67° C | 83% | 1014.1 hPa | 0 mm | - | 0 W/m² | - |
| 1777781899 | 16.67° C | 83% | 1014 hPa | 0 mm | - | 0 W/m² | - |
| 1777781610 | 16.67° C | 83% | 1013.9 hPa | 0 mm | - | 0 W/m² | - |
| 1777781303 | 16.67° C | 83% | 1014 hPa | 0 mm | - | 0 W/m² | - |
| 1777781012 | 16.67° C | 83% | 1014.1 hPa | 0 mm | - | 0 W/m² | - |
* Rain latest hour (hover to see other rain measurements)
** Current wind speed in m/s (hover to see current wind gust speed)